Weather History for Macau International, Macao

Change the Weather History Date:

Thursday, September 19, 2013

  Actual Average Record
Temperature  
Mean Temperature 84 °F -  
Max Temperature 89 °F 80 °F 95 °F (2014)
Min Temperature 78 °F 74 °F 75 °F (1997)
Cooling Degree Days 18    
Growing Degree Days 34 (Base 50)    
Moisture  
Dew Point 74 °F    
Average Humidity 74    
Maximum Humidity 84    
Minimum Humidity 61    
Precipitation  
Precipitation 0.00 in - - ()
Sea Level Pressure  
Sea Level Pressure 29.75 in    
Wind  
Wind Speed 10 mph ()    
Max Wind Speed 20 mph    
Max Gust Speed -    
Visibility 6.0 miles    
Events      
Averages and records for this station are not official NWS values.
T = Trace of Precipitation, MM = Missing Value Source: Averaged Metar Reports

Daily Weather History Graph

Daily Weather History Graph

Search for Another Location

Airport:

Trip Planner

Search our weather history database for the weather conditions in past years. The results will help you decide how hot, cold, wet, or windy it might be!

Date:

Astronomy

Sep. 19, 2013 Rise Set
Actual Time 6:13 AM CST 6:25 PM CST
Civil Twilight 5:51 AM CST 6:47 PM CST
Nautical Twilight 5:25 AM CST 7:13 PM CST
Astronomical Twilight 4:59 AM CST 7:39 PM CST
Moon 6:09 PM CST (9/19) 5:43 AM CST (9/19)
Length of Visible Light 12h 56m
Length of Day
12h 11m
Full, 100% of the Moon is Illuminated
Sep 19
Full
Sep 19
Full
Sep 27
Last Quarter
Oct 5
New
Oct 12
First Quarter

Hourly Weather History & Observations

Time (CST) Temp. Heat Index Dew Point Humidity Pressure Visibility Wind Dir Wind Speed Gust Speed Precip Events Conditions
12:00 AM 82.4 °F 89.5 °F 75.2 °F 79% 29.77 in 6.2 mi East 10.4 mph - N/A   Partly Cloudy
12:30 AM 82.4 °F 89.5 °F 75.2 °F 79% 29.77 in 6.2 mi East 9.2 mph - N/A   Partly Cloudy
1:00 AM 82.4 °F 89.5 °F 75.2 °F 79% 29.74 in 6.2 mi East 8.1 mph - N/A   Partly Cloudy
1:30 AM 82.4 °F 89.5 °F 75.2 °F 79% 29.74 in 6.2 mi ENE 9.2 mph - N/A   Partly Cloudy
2:00 AM 80 °F - 74 °F 79% 29.78 in 6 mi ENE 4.6 mph - -  
2:00 AM 82.4 °F 89.5 °F 75.2 °F 79% 29.74 in 6.2 mi ENE 8.1 mph - N/A   Partly Cloudy
2:30 AM 82.4 °F 89.5 °F 75.2 °F 79% 29.74 in 6.2 mi ENE 8.1 mph - N/A   Partly Cloudy
3:00 AM 82.4 °F 89.5 °F 75.2 °F 79% 29.74 in 6.2 mi NE 8.1 mph - N/A   Scattered Clouds
3:30 AM 82.4 °F 89.5 °F 75.2 °F 79% 29.74 in 6.2 mi NE 8.1 mph - N/A   Partly Cloudy
4:00 AM 82.4 °F 88.2 °F 73.4 °F 74% 29.71 in 6.2 mi NE 9.2 mph - N/A   Partly Cloudy
4:30 AM 82.4 °F 88.2 °F 73.4 °F 74% 29.74 in 6.2 mi NE 10.4 mph - N/A   Partly Cloudy
5:00 AM 79 °F - 74 °F 82% 29.75 in 6 mi NNE 8.1 mph - -  
5:00 AM 80.6 °F 86.2 °F 75.2 °F 84% 29.71 in 6.2 mi NE 9.2 mph - N/A   Partly Cloudy
5:30 AM 80.6 °F 85.4 °F 73.4 °F 79% 29.71 in 6.2 mi NE 8.1 mph - N/A   Partly Cloudy
6:00 AM 82.4 °F 89.5 °F 75.2 °F 79% 29.74 in 6.2 mi NNE 9.2 mph - N/A   Partly Cloudy
6:30 AM 82.4 °F 89.5 °F 75.2 °F 79% 29.74 in 5.6 mi NNE 10.4 mph - N/A   Partly Cloudy
7:00 AM 82.4 °F 88.2 °F 73.4 °F 74% 29.74 in 5.6 mi NNE 11.5 mph - N/A   Partly Cloudy
7:30 AM 82.4 °F 88.2 °F 73.4 °F 74% 29.74 in 5.6 mi NNE 11.5 mph - N/A   Scattered Clouds
8:00 AM 80 °F - 75 °F 82% 29.78 in 4 mi North 9.2 mph - -  
8:00 AM 82.4 °F 88.2 °F 73.4 °F 74% 29.77 in 5.6 mi NNE 11.5 mph - N/A   Scattered Clouds
8:30 AM 84.2 °F 90.9 °F 73.4 °F 70% 29.77 in 4.3 mi NNE 12.7 mph - N/A   Partly Cloudy
9:00 AM 84.2 °F 90.9 °F 73.4 °F 70% 29.77 in 5.0 mi NNE 10.4 mph - N/A   Partly Cloudy
9:30 AM 84.2 °F 90.9 °F 73.4 °F 70% 29.77 in 5.6 mi NNE 8.1 mph - N/A   Partly Cloudy
10:00 AM 86.0 °F 93.4 °F 73.4 °F 66% 29.77 in 5.0 mi NNE 8.1 mph - N/A   Partly Cloudy
10:30 AM 86.0 °F 93.4 °F 73.4 °F 66% 29.77 in 5.0 mi NNE 9.2 mph - N/A   Partly Cloudy
11:00 AM 87 °F - 75 °F 61% 29.79 in 6 mi NNE 8.1 mph - -  
11:00 AM 86.0 °F 93.4 °F 73.4 °F 66% 29.77 in 5.0 mi NNE 9.2 mph - N/A   Partly Cloudy
11:30 AM 86.0 °F 93.4 °F 73.4 °F 66% 29.77 in 5.6 mi NNE 8.1 mph - N/A   Partly Cloudy
12:00 PM 87.8 °F 95.6 °F 73.4 °F 62% 29.77 in 5.0 mi NNE 9.2 mph - N/A   Partly Cloudy
12:30 PM 87.8 °F 95.6 °F 73.4 °F 62% 29.77 in 5.0 mi NNE 8.1 mph - N/A   Scattered Clouds
1:00 PM 86.0 °F 93.4 °F 73.4 °F 66% 29.74 in 5.6 mi NE 6.9 mph - N/A   Scattered Clouds
1:30 PM 86.0 °F 93.4 °F 73.4 °F 66% 29.74 in 5.6 mi Variable 6.9 mph - N/A   Scattered Clouds
2:00 PM 84 °F - 75 °F 67% 29.77 in 9 mi East 11.5 mph - -  
2:00 PM 86.0 °F 93.4 °F 73.4 °F 66% 29.74 in 6.2 mi East 17.3 mph - N/A   Scattered Clouds
2:30 PM 84.2 °F 90.9 °F 73.4 °F 70% 29.74 in 6.2 mi East 15.0 mph - N/A   Scattered Clouds
3:00 PM 84.2 °F 92.3 °F 75.2 °F 74% 29.71 in 6.2 mi East 16.1 mph - N/A   Scattered Clouds
3:30 PM 84.2 °F 92.3 °F 75.2 °F 74% 29.71 in 6.2 mi East 15.0 mph - N/A   Scattered Clouds
4:00 PM 84.2 °F 92.3 °F 75.2 °F 74% 29.71 in 6.2 mi East 11.5 mph - N/A   Scattered Clouds
4:30 PM 84.2 °F 92.3 °F 75.2 °F 74% 29.71 in 6.2 mi East 12.7 mph - N/A   Scattered Clouds
5:00 PM 83 °F - 76 °F 73% 29.73 in 7 mi East 10.4 mph - -  
5:00 PM 84.2 °F 92.3 °F 75.2 °F 74% 29.71 in 6.2 mi East 13.8 mph - N/A   Partly Cloudy
5:30 PM 84.2 °F 92.3 °F 75.2 °F 74% 29.71 in 6.2 mi East 17.3 mph - N/A   Partly Cloudy
6:00 PM 84.2 °F 92.3 °F 75.2 °F 74% 29.71 in 6.2 mi East 18.4 mph - N/A   Partly Cloudy
6:30 PM 84.2 °F 92.3 °F 75.2 °F 74% 29.71 in 6.2 mi East 19.6 mph - N/A   Partly Cloudy
7:00 PM 84.2 °F 92.3 °F 75.2 °F 74% 29.74 in 6.2 mi East 15.0 mph - N/A   Partly Cloudy
7:30 PM 84.2 °F 90.9 °F 73.4 °F 70% 29.74 in 6.2 mi East 17.3 mph - N/A   Partly Cloudy
8:00 PM 82 °F - 74 °F 70% 29.78 in 8 mi East 11.5 mph - -  
8:00 PM 84.2 °F 92.3 °F 75.2 °F 74% 29.74 in 6.2 mi East 17.3 mph - N/A   Partly Cloudy
8:30 PM 82.4 °F 88.2 °F 73.4 °F 74% 29.77 in 6.2 mi East 13.8 mph - N/A   Partly Cloudy
9:00 PM 84.2 °F 92.3 °F 75.2 °F 74% 29.77 in - East 15.0 mph - N/A   Clear
9:30 PM 84.2 °F 92.3 °F 75.2 °F 74% 29.77 in - East 18.4 mph - N/A   Clear
10:00 PM 82.4 °F 89.5 °F 75.2 °F 79% 29.77 in - East 13.8 mph - N/A   Clear
10:30 PM 82.4 °F 89.5 °F 75.2 °F 79% 29.80 in - East 15.0 mph - N/A   Clear
11:00 PM 81 °F - 76 °F 80% 29.81 in 6 mi East 10.4 mph - -  
11:00 PM 82.4 °F 89.5 °F 75.2 °F 79% 29.77 in - East 15.0 mph - N/A   Clear
11:30 PM 82.4 °F 89.5 °F 75.2 °F 79% 29.77 in - East 13.8 mph - N/A   Clear